Ernest Shackleton — ZDLS1 — position and weather

sailwx.info

Track history (hours):
 
Tides and Currents Weather Stations Pressure Air Temp Water Temp Dewpoint Dewpoint Depression Visibility Wind Speed Wind Dir Waves Ship Positions

Oceanographic research ship Ernest Shackleton (UK/Norway)

Detailed information on ship capabilities available from University of Delaware's Ocean Information Center and ARCUS's ALIAS (Arctic Logistics Information and Support) project.

Last reported at 2015-Mar-01 17:00 UTC. Time now 2015-Mar-01 20:55 UTC.
Position S 64°30' W 028°54'.

Length 80 m; beam 17 m; draft 7.4 m.

Type: Other ship. MMSI: 740357000.

AWS

Barometer 957.1 mb
Air temperature -2.3 ° C
Dewpoint 1.2 ° C

Date/timePositionNaut miles runAvg speedWind from/ knotsBaromVisibWave heightAir tempDewpointWater temp
2015-Mar-01 17:00S 64°30' W 028°54'10 9.8 957.1 -2.3 1.2
2015-Mar-01 16:00S 64°24' W 029°12'10 9.8 957.2 -2.3-0.1
2015-Mar-01 15:00S 64°18' W 029°30'1414.3 957.6 -2.2-0.3
2015-Mar-01 14:00S 64°06' W 029°48'8 8.0 957.9 -2.3-0.4
2015-Mar-01 13:00S 64°00' W 030°00'28 9.3 958.2 -2.4-0.1
2015-Mar-01 10:00S 63°42' W 030°48'1010.0 958.7 -2.3-0.2
2015-Mar-01 09:00S 63°36' W 031°06'1010.0 959.0 -2.0-0.2
2015-Mar-01 08:00S 63°30' W 031°24'1010.0 959.4 -1.8 0.1
2015-Mar-01 07:00S 63°24' W 031°42'1010.1 959.4 -1.9 0.8
2015-Mar-01 06:00S 63°18' W 032°00'16 8.1 959.2 -2.1 0.7
2015-Mar-01 04:00S 63°06' W 032°24'1010.1 960.0 -2.6 1.0
2015-Mar-01 03:00S 63°00' W 032°42'5 5.4 960.8 -2.4 0.3
2015-Mar-01 02:00S 63°00' W 032°54'8 8.1 961.5 -2.3 0.4
2015-Mar-01 01:00S 62°54' W 033°06'8 8.1 962.5 -1.9-0.8
2015-Mar-01 00:00S 62°48' W 033°18'15 7.5 963.2 -1.8-0.9
2015-Feb-28 22:00S 62°42' W 033°48'8 8.1 963.6 -1.6-1.6
2015-Feb-28 21:00S 62°36' W 034°00'18 9.2 964.0 -1.6-1.1
2015-Feb-28 19:00S 62°24' W 034°30'8 8.2 964.6 -1.8 0.5
2015-Feb-28 18:00S 62°18' W 034°42'8 8.4 965.0 -2.0 1.1
2015-Feb-28 17:00S 62°18' W 035°00'1010.3 965.7 -1.9 0.4
2015-Feb-28 16:00S 62°12' W 035°18'16 8.2 966.3 -1.9 0.3
2015-Feb-28 14:00S 62°00' W 035°42'1010.4 967.9 -2.1 0.1
2015-Feb-28 13:00S 61°54' W 036°00'1212.3 968.5 -2.5 1.1
2015-Feb-28 12:00S 61°42' W 036°06'1111.4 969.2 -2.3 0.9
2015-Feb-28 11:00S 61°42' W 036°30'17 8.5 970.2 -2.2 0.6
2015-Feb-28 09:00S 61°42' W 037°06'1514.7 970.5 -2.1 0.8
2015-Feb-28 08:00S 61°30' W 037°24'1010.5 970.7 -2.0 0.7
2015-Feb-28 07:00S 61°36' W 037°42'8 8.3 971.2 -2.2 1.2
2015-Feb-28 06:00S 61°42' W 037°54'8 8.3 971.7 -2.3 1.2
2015-Feb-28 05:00S 61°48' W 038°06'26 6.4 972.2 -2.2 0.6
2015-Feb-28 01:00S 61°48' W 039°00'6112.1 973.5 -2.4 1.1
2015-Feb-27 20:00S 61°12' W 040°42'2110.6 969.8 -2.1-0.1
2015-Feb-27 18:00S 61°00' W 041°18'   970.0 -1.9-1.4
Track history (hours):
 
Tides and Currents Weather Stations Pressure Air Temp Water Temp Dewpoint Dewpoint Depression Visibility Wind Speed Wind Dir Waves Ship Positions

Oceanographic research ship Ernest Shackleton (UK/Norway)

Detailed information on ship capabilities available from University of Delaware's Ocean Information Center and ARCUS's ALIAS (Arctic Logistics Information and Support) project.

Last reported at 2015-Mar-01 17:00 UTC. Time now 2015-Mar-01 20:55 UTC.
Position S 64°30' W 028°54'.

Length 80 m; beam 17 m; draft 7.4 m.

Type: Other ship. MMSI: 740357000.

AWS

Barometer 957.1 mb
Air temperature -2.3 ° C
Dewpoint 1.2 ° C

Date/timePositionNaut miles runAvg speedWind from/ knotsBaromVisibWave heightAir tempDewpointWater temp
2015-Mar-01 17:00S 64°30' W 028°54'10 9.8 957.1 -2.3 1.2
2015-Mar-01 16:00S 64°24' W 029°12'10 9.8 957.2 -2.3-0.1
2015-Mar-01 15:00S 64°18' W 029°30'1414.3 957.6 -2.2-0.3
2015-Mar-01 14:00S 64°06' W 029°48'8 8.0 957.9 -2.3-0.4
2015-Mar-01 13:00S 64°00' W 030°00'28 9.3 958.2 -2.4-0.1
2015-Mar-01 10:00S 63°42' W 030°48'1010.0 958.7 -2.3-0.2
2015-Mar-01 09:00S 63°36' W 031°06'1010.0 959.0 -2.0-0.2
2015-Mar-01 08:00S 63°30' W 031°24'1010.0 959.4 -1.8 0.1
2015-Mar-01 07:00S 63°24' W 031°42'1010.1 959.4 -1.9 0.8
2015-Mar-01 06:00S 63°18' W 032°00'16 8.1 959.2 -2.1 0.7
2015-Mar-01 04:00S 63°06' W 032°24'1010.1 960.0 -2.6 1.0
2015-Mar-01 03:00S 63°00' W 032°42'5 5.4 960.8 -2.4 0.3
2015-Mar-01 02:00S 63°00' W 032°54'8 8.1 961.5 -2.3 0.4
2015-Mar-01 01:00S 62°54' W 033°06'8 8.1 962.5 -1.9-0.8
2015-Mar-01 00:00S 62°48' W 033°18'15 7.5 963.2 -1.8-0.9
2015-Feb-28 22:00S 62°42' W 033°48'8 8.1 963.6 -1.6-1.6
2015-Feb-28 21:00S 62°36' W 034°00'18 9.2 964.0 -1.6-1.1
2015-Feb-28 19:00S 62°24' W 034°30'8 8.2 964.6 -1.8 0.5
2015-Feb-28 18:00S 62°18' W 034°42'8 8.4 965.0 -2.0 1.1
2015-Feb-28 17:00S 62°18' W 035°00'1010.3 965.7 -1.9 0.4
2015-Feb-28 16:00S 62°12' W 035°18'16 8.2 966.3 -1.9 0.3
2015-Feb-28 14:00S 62°00' W 035°42'1010.4 967.9 -2.1 0.1
2015-Feb-28 13:00S 61°54' W 036°00'1212.3 968.5 -2.5 1.1
2015-Feb-28 12:00S 61°42' W 036°06'1111.4 969.2 -2.3 0.9
2015-Feb-28 11:00S 61°42' W 036°30'17 8.5 970.2 -2.2 0.6
2015-Feb-28 09:00S 61°42' W 037°06'1514.7 970.5 -2.1 0.8
2015-Feb-28 08:00S 61°30' W 037°24'1010.5 970.7 -2.0 0.7
2015-Feb-28 07:00S 61°36' W 037°42'8 8.3 971.2 -2.2 1.2
2015-Feb-28 06:00S 61°42' W 037°54'8 8.3 971.7 -2.3 1.2
2015-Feb-28 05:00S 61°48' W 038°06'26 6.4 972.2 -2.2 0.6
2015-Feb-28 01:00S 61°48' W 039°00'6112.1 973.5 -2.4 1.1
2015-Feb-27 20:00S 61°12' W 040°42'2110.6 969.8 -2.1-0.1
2015-Feb-27 18:00S 61°00' W 041°18'   970.0 -1.9-1.4

Dump ship's entire track history